カタログに戻る

STARLINK-36089

運用中通信VLEO
NORAD 66947·PAYLOAD·🇺🇸 United States

打ち上げ Dec 7, 2025 から Vandenberg Space Force Base

Loading…

次のパス (今後24時間)

TLE

最新Source: CelesTrak SupGP

元期: Sep 15, 2026, 03:35 UTC

1 66947C 25286Y   26258.14979167 -.00064324  00000+0 -19008-2 0  2580
2 66947  53.1591 194.8944 0001351  88.9430 276.0466 15.34417657    14

AllMySatでSTARLINK-36089をリアルタイム追跡

Download on the App Store